If you wish to contribute or participate in the discussions about articles you are invited to join SKYbrary as a registered user

 Actions

Ain Arnat Airport

From SKYbrary Wiki

DAAS
Airport
ICAO: DAAS – IATA: QSF
Summary
Name Ain Arnat Airport
Region Africa
Territory Algeria DZ.gif
Location , Setif
Serving Setif
Elevation 1,024.128 m
3,360 ft
3,360 ft1,024.128 m
Type medium airport
Coordinates 36° 10' 41.16" N, 5° 19' 28.16" E
Runways
Designator Length Width Surface ROPS


METAR
Observation DAAS 061500Z 24015KT 9999 FEW030 BKN233 27/M02 Q1016
Station Setif
Date/Time 06 June 2020 15:00:00
Wind direction 240°
Wind speed 15 kts
Lowest cloud amount few clouds
Temperature 27°C
Dew point
Humidity 14%
QNH 1016 hPa
Weather condition n/a